GW4969 Weather Reports


time (UTC)temp
C
wind
direction
speed
KPH
gust
KPH
rain 1hr
cm
rain 24hr
cm
rain mn
cm
humidity
%
barometer
mb
20260506000306 17 275 0.0 4.8 0.00 0.00 0.00 63 1015.5
20260505235806 17 275 0.0 4.8 0.00 0.00 0.00 63 1015.5
20260505235306 17 274 1.6 6.4 0.00 0.00 0.00 63 1015.5
20260505234807 17 255 0.0 6.4 0.00 0.00 0.00 63 1015.5
20260505234523 17 106 0.0 3.2 0.00 0.00 0.00 63 1015.6
20260505234251 17 314 0.0 3.2 0.00 0.00 0.00 63 1015.6
20260505233307 17 296 1.6 4.8 0.00 0.00 0.00 63 1015.7
20260505232806 17 293 0.0 4.8 0.00 0.00 0.00 63 1015.8
20260505232306 17 300 1.6 3.2 0.00 0.00 0.00 63 1015.7
20260505231805 17 305 1.6 3.2 0.00 0.00 0.00 63 1015.7
20260505231305 17 305 0.0 4.8 0.00 0.00 0.00 64 1015.7
20260505230805 17 278 1.6 4.8 0.00 0.00 0.00 64 1015.6
20260505230306 17 303 1.6 4.8 0.00 0.00 0.00 63 1015.7
20260505225805 17 272 0.0 4.8 0.00 0.00 0.00 63 1015.6
20260505225306 17 298 3.2 4.8 0.00 0.00 0.00 64 1015.6
20260505224805 17 293 1.6 6.4 0.00 0.00 0.00 64 1015.7
20260505224305 17 293 3.2 6.4 0.00 0.00 0.00 64 1015.8
20260505223805 16 288 1.6 4.8 0.00 0.00 0.00 63 1015.8
20260505223305 16 282 1.6 6.4 0.00 0.00 0.00 65 1015.7
20260505222804 16 279 3.2 6.4 0.00 0.00 0.00 64 1015.8
20260505222306 16 272 3.2 4.8 0.00 0.00 0.00 65 1015.8
20260505221804 16 269 1.6 4.8 0.00 0.00 0.00 65 1015.8
20260505221304 16 79 1.6 4.8 0.00 0.00 0.00 65 1015.9
20260505220804 16 293 1.6 4.8 0.00 0.00 0.00 66 1016.0
20260505220522 16 293 0.0 4.8 0.00 0.00 0.00 65 1015.9
20260505215803 16 295 1.6 4.8 0.00 0.00 0.00 66 1016.0
20260505215305 16 290 1.6 4.8 0.00 0.00 0.00 66 1016.0
20260505215023 16 357 1.6 4.8 0.00 0.00 0.00 66 1016.1
20260505214303 16 316 1.6 4.8 0.00 0.00 0.00 66 1016.1
20260505213803 16 87 0.0 3.2 0.00 0.00 0.00 66 1016.1
20260505213303 16 87 0.0 3.2 0.00 0.00 0.00 66 1016.2
20260505212803 16 87 1.6 3.2 0.00 0.00 0.00 66 1016.2
20260505212305 16 87 0.0 3.2 0.00 0.00 0.00 68 1016.3
20260505211802 16 87 3.2 3.2 0.00 0.00 0.00 68 1016.3
20260505211302 16 92 0.0 3.2 0.00 0.00 0.00 67 1016.2
20260505210802 16 92 0.0 4.8 0.00 0.00 0.00 68 1016.1
20260505210302 15 92 1.6 4.8 0.00 0.00 0.00 68 1016.2
20260505205803 15 94 1.6 4.8 0.00 0.00 0.00 69 1016.1
20260505205524 15 94 1.6 4.8 0.00 0.00 0.00 69 1016.2
20260505204802 15 90 1.6 3.2 0.00 0.00 0.00 69 1016.2
20260505204301 15 90 0.0 3.2 0.00 0.00 0.00 69 1016.3
20260505203802 15 83 1.6 4.8 0.00 0.00 0.00 70 1016.2
20260505203520 15 83 1.6 4.8 0.00 0.00 0.00 69 1016.2
20260505203025 15 80 1.6 4.8 0.00 0.00 0.00 69 1016.3
20260505202302 15 78 0.0 3.2 0.00 0.00 0.00 69 1016.2
20260505201801 15 78 0.0 3.2 0.00 0.00 0.00 69 1016.2
20260505201302 15 75 0.0 6.4 0.00 0.00 0.00 69 1016.3
20260505200801 15 79 1.6 6.4 0.00 0.00 0.00 69 1016.3
20260505200301 15 94 3.2 6.4 0.00 0.00 0.00 69 1016.4
20260505195800 15 99 3.2 6.4 0.00 0.00 0.00 69 1016.5
20260505195301 15 116 3.2 6.4 0.00 0.00 0.00 69 1016.5
20260505194800 15 90 3.2 6.4 0.00 0.00 0.00 70 1016.5
20260505194300 15 54 3.2 4.8 0.00 0.00 0.00 70 1016.5
20260505193800 15 0 0.0 4.8 0.00 0.00 0.00 69 1016.5
20260505193301 15 321 0.0 4.8 0.00 0.00 0.00 69 1016.6
20260505192800 15 329 0.0 4.8 0.00 0.00 0.00 68 1016.7
20260505192519 15 331 1.6 4.8 0.00 0.00 0.00 69 1016.6
20260505191800 15 305 0.0 6.4 0.00 0.00 0.00 69 1016.6
20260505191606 15 23 1.6 8.0 0.00 0.00 0.00 69 1016.5
20260505191501 15 310 1.6 8.0 0.00 0.00 0.00 70 1016.4
20260505190259 15 251 3.2 9.7 0.00 0.00 0.00 71 1016.4
20260505185759 14 278 1.6 9.7 0.00 0.00 0.00 71 1016.4
20260505185259 14 302 3.2 8.0 0.00 0.00 0.00 71 1016.3
20260505184759 14 275 1.6 8.0 0.00 0.00 0.00 71 1016.4
20260505184300 14 282 1.6 8.0 0.00 0.00 0.00 72 1016.4
20260505183759 14 266 4.8 8.0 0.00 0.00 0.00 73 1016.5
20260505183259 14 279 0.0 3.2 0.00 0.00 0.00 73 1016.5
20260505182758 13 282 0.0 4.8 0.00 0.00 0.00 74 1016.5
20260505182258 13 282 1.6 4.8 0.00 0.00 0.00 74 1016.5
20260505181758 13 25 1.6 3.2 0.00 0.00 0.00 74 1016.6
20260505181520 13 41 0.0 1.6 0.00 0.00 0.00 74 1016.5
20260505180758 14 41 0.0 6.4 0.00 0.00 0.00 74 1016.5
20260505180519 14 41 0.0 6.4 0.00 0.00 0.00 73 1016.5
20260505175758 14 234 3.2 8.0 0.00 0.00 0.00 72 1016.4
20260505175523 14 92 1.6 8.0 0.00 0.00 0.00 70 1016.3
20260505174757 14 173 1.6 6.4 0.00 0.00 0.00 69 1016.4
20260505174256 14 278 3.2 4.8 0.00 0.00 0.00 69 1016.3
20260505173757 14 268 0.0 4.8 0.00 0.00 0.00 68 1016.2
20260505173257 14 265 0.0 4.8 0.00 0.00 0.00 69 1016.0
20260505172757 14 281 1.6 4.8 0.00 0.00 0.00 69 1016.0
20260505172516 13 264 1.6 6.4 0.00 0.00 0.00 69 1015.9
20260505171757 13 261 1.6 6.4 0.00 0.00 0.00 69 1015.9
20260505171521 13 176 1.6 3.2 0.00 0.00 0.00 69 1015.9
20260505170757 13 175 0.0 1.6 0.00 0.00 0.00 70 1015.8
20260505170255 13 173 0.0 1.6 0.00 0.00 0.00 69 1015.9
20260505165756 13 173 0.0 3.2 0.00 0.00 0.00 70 1015.9
20260505165515 13 173 1.6 3.2 0.00 0.00 0.00 69 1015.9
20260505164756 13 286 0.0 3.2 0.00 0.00 0.00 69 1015.9
20260505164257 13 283 1.6 3.2 0.00 0.00 0.00 69 1015.9
20260505163756 13 283 0.0 3.2 0.00 0.00 0.00 69 1015.8
20260505163256 13 283 1.6 3.2 0.00 0.00 0.00 70 1015.8
20260505163017 13 283 1.6 3.2 0.00 0.00 0.00 71 1015.6
20260505162255 13 283 0.0 3.2 0.00 0.00 0.00 71 1015.7
20260505161754 13 282 0.0 3.2 0.00 0.00 0.00 71 1015.8
20260505161255 13 281 0.0 3.2 0.00 0.00 0.00 71 1015.7
20260505160755 13 281 0.0 3.2 0.00 0.00 0.00 72 1015.7
20260505160256 13 281 0.0 3.2 0.00 0.00 0.00 72 1015.7
20260505153255 13 281 0.0 1.6 0.00 0.00 0.00 73 1015.5
20260505153016 12 281 0.0 1.6 0.00 0.00 0.00 73 1015.6
20260505152255 12 281 0.0 1.6 0.00 0.00 0.00 74 1015.4
20260505151754 12 281 0.0 1.6 0.00 0.00 0.00 73 1015.5
20260505151254 12 281 0.0 1.6 0.00 0.00 0.00 73 1015.4
20260505150754 12 281 0.0 1.6 0.00 0.00 0.00 74 1015.5
20260505150512 12 281 0.0 1.6 0.00 0.00 0.00 74 1015.4
20260505140252 12 281 0.0 3.2 0.00 0.00 0.00 75 1015.1
20260505130252 11 281 0.0 4.8 0.00 0.00 0.00 75 1014.7
20260505124751 11 281 0.0 3.2 0.00 0.00 0.00 75 1014.9
20260505124249 11 281 0.0 3.2 0.00 0.00 0.00 75 1014.9
20260505123750 11 281 1.6 3.2 0.00 0.00 0.00 75 1014.9
20260505123251 12 281 0.0 3.2 0.00 0.00 0.00 75 1014.9
20260505122750 12 281 0.0 3.2 0.00 0.00 0.00 75 1014.9
20260505122251 12 281 1.6 3.2 0.00 0.00 0.00 75 1015.0
20260505121750 12 281 0.0 3.2 0.00 0.00 0.00 75 1015.0
20260505121250 12 281 0.0 1.6 0.00 0.00 0.00 74 1014.9
20260505120749 12 281 0.0 1.6 0.00 0.00 0.00 74 1015.0
20260505120248 12 281 0.0 1.6 0.00 0.00 0.00 74 1015.0
20260505115749 12 281 0.0 3.2 0.00 0.00 0.00 74 1015.1
20260505115512 12 281 0.0 3.2 0.00 0.00 0.00 74 1015.0
20260505114749 12 281 0.0 3.2 0.00 0.00 0.00 74 1015.1
20260505114250 12 281 0.0 3.2 0.00 0.00 0.00 74 1015.0
20260505113749 12 281 0.0 1.6 0.00 0.00 0.00 74 1015.0
20260505113248 12 281 1.6 4.8 0.00 0.00 0.00 73 1015.2
20260505112749 12 281 0.0 4.8 0.00 0.00 0.00 73 1015.2
20260505112247 12 283 0.0 4.8 0.00 0.00 0.00 73 1015.1
20260505112017 12 286 1.6 3.2 0.00 0.00 0.00 73 1015.1
20260505111247 12 286 1.6 3.2 0.00 0.00 0.00 72 1015.0
20260505110748 12 286 0.0 3.2 0.00 0.00 0.00 72 1015.1
20260505110249 12 286 0.0 4.8 0.00 0.00 0.00 72 1015.1
20260505101747 12 261 1.6 8.0 0.00 0.00 0.00 70 1015.0
20260505101247 12 295 1.6 4.8 0.00 0.00 0.00 70 1015.0
20260505101012 12 298 1.6 6.4 0.00 0.00 0.00 70 1015.0
20260505100247 12 298 3.2 6.4 0.00 0.00 0.00 70 1015.1
20260505100011 12 288 1.6 6.4 0.00 0.00 0.00 70 1015.1
20260505095246 12 271 1.6 6.4 0.00 0.00 0.00 69 1015.2
20260505094747 12 258 4.8 6.4 0.00 0.00 0.00 69 1015.1
20260505094247 12 258 3.2 6.4 0.00 0.00 0.00 69 1015.2
20260505093746 12 272 3.2 4.8 0.00 0.00 0.00 68 1015.2
20260505093247 12 266 1.6 4.8 0.00 0.00 0.00 68 1015.3
20260505092746 12 290 1.6 6.4 0.00 0.00 0.00 68 1015.4
20260505092246 12 258 4.8 8.0 0.00 0.00 0.00 68 1015.4
20260505091744 12 281 1.6 9.7 0.00 0.00 0.00 67 1015.3
20260505091245 12 264 3.2 9.7 0.00 0.00 0.00 67 1015.3
20260505090745 12 262 4.8 11.3 0.00 0.00 0.00 66 1015.4
20260505090245 12 261 4.8 11.3 0.00 0.00 0.00 66 1015.4
20260505085745 12 293 4.8 11.3 0.00 0.00 0.00 65 1015.5
20260505085726 12 261 3.2 9.7 0.00 0.00 0.00 65 1015.5
20260505084745 12 293 3.2 9.7 0.00 0.00 0.00 66 1015.6
20260505084245 12 286 3.2 9.7 0.00 0.00 0.00 66 1015.5
20260505083745 12 279 3.2 11.3 0.00 0.00 0.00 67 1015.6
20260505083243 12 234 3.2 11.3 0.00 0.00 0.00 67 1015.7
20260505082744 12 226 3.2 8.0 0.00 0.00 0.00 67 1015.8
20260505082245 12 329 3.2 9.7 0.00 0.00 0.00 67 1015.8
20260505081745 12 271 3.2 9.7 0.00 0.00 0.00 67 1015.8
20260505081725 12 240 3.2 9.7 0.00 0.00 0.00 67 1015.8
20260505080745 12 274 4.8 11.3 0.00 0.00 0.00 66 1015.8
20260505080244 13 290 4.8 11.3 0.00 0.00 0.00 66 1015.8
20260505080004 13 264 4.8 9.7 0.00 0.00 0.00 66 1015.8
20260505075244 13 266 1.6 14.5 0.00 0.00 0.00 66 1015.9
20260505074745 13 258 4.8 14.5 0.00 0.00 0.00 66 1016.0
20260505074243 13 307 4.8 9.7 0.00 0.00 0.00 67 1015.9
20260505073743 13 259 3.2 8.0 0.00 0.00 0.00 67 1015.8
20260505073243 13 254 3.2 8.0 0.00 0.00 0.00 67 1015.8
20260505072743 13 252 1.6 11.3 0.00 0.00 0.00 68 1015.8
20260505072507 13 261 3.2 11.3 0.00 0.00 0.00 68 1015.8
20260505071743 13 296 3.2 8.0 0.00 0.00 0.00 69 1015.8
20260505071458 13 275 1.6 8.0 0.00 0.00 0.00 70 1015.7
20260505070742 13 290 3.2 8.0 0.00 0.00 0.00 70 1015.6
20260505070242 13 0 1.6 4.8 0.00 0.00 0.00 70 1015.6
20260505070008 13 247 1.6 4.8 0.00 0.00 0.00 71 1015.5
20260505065250 13 264 3.2 8.0 0.00 0.00 0.00 71 1015.4
20260505065242 13 289 3.2 8.0 0.00 0.00 0.00 71 1015.4
20260505064506 13 300 1.6 3.2 0.00 0.00 0.00 71 1015.6
20260505064007 13 303 0.0 3.2 0.00 0.00 0.00 70 1015.5
20260505063243 13 303 0.0 4.8 0.00 0.00 0.00 72 1015.5
20260505062742 13 63 1.6 4.8 0.00 0.00 0.00 72 1015.5
20260505062510 13 289 0.0 4.8 0.00 0.00 0.00 72 1015.5
20260505061741 13 286 1.6 4.8 0.00 0.00 0.00 72 1015.3
20260505061242 13 289 0.0 6.4 0.00 0.00 0.00 71 1015.3
20260505060742 13 276 0.0 11.3 0.00 0.00 0.00 71 1015.3
20260505060241 13 264 3.2 11.3 0.00 0.00 0.00 71 1015.3
20260505055742 13 271 3.2 11.3 0.00 0.00 0.00 71 1015.3
20260505055241 13 286 3.2 6.4 0.00 0.00 0.00 71 1015.4
20260505054742 13 247 3.2 4.8 0.00 0.00 0.00 71 1015.4
20260505054241 13 230 1.6 4.8 0.00 0.00 0.00 71 1015.5
20260505053740 14 272 1.6 6.4 0.00 0.00 0.00 71 1015.6
20260505053240 14 269 3.2 8.0 0.00 0.00 0.00 71 1015.6
20260505052741 14 275 4.8 9.7 0.00 0.00 0.00 72 1015.5
20260505052241 14 269 1.6 9.7 0.00 0.00 0.00 72 1015.6
20260505051740 14 247 1.6 11.3 0.00 0.00 0.00 72 1015.8
20260505051506 14 47 4.8 11.3 0.00 0.00 0.00 71 1015.8
20260505050740 14 278 0.0 8.0 0.00 0.00 0.00 70 1015.8
20260505050240 14 275 1.6 11.3 0.00 0.00 0.00 70 1015.8
20260505041737 14 251 3.2 9.7 0.00 0.00 0.00 67 1015.4
20260505041238 14 230 0.0 4.8 0.00 0.00 0.00 68 1015.3
20260505040739 14 6 1.6 9.7 0.00 0.00 0.00 68 1015.3
20260505040238 15 59 1.6 11.3 0.00 0.00 0.00 68 1015.2
20260505035739 15 30 3.2 11.3 0.00 0.00 0.00 68 1015.2
20260505035238 15 302 1.6 8.0 0.00 0.00 0.00 67 1015.1
20260505035000 15 262 1.6 9.7 0.00 0.00 0.00 67 1015.0
20260505034238 15 262 3.2 9.7 0.00 0.00 0.00 66 1015.0
20260505033738 15 262 3.2 6.4 0.00 0.00 0.00 67 1014.9
20260505033237 15 285 1.6 6.4 0.00 0.00 0.00 67 1014.8
20260505032737 15 52 1.6 6.4 0.00 0.00 0.00 67 1014.7
20260505032238 15 338 1.6 9.7 0.00 0.00 0.00 67 1014.6
20260505031737 15 266 3.2 9.7 0.00 0.00 0.00 67 1014.5
20260505031238 15 272 3.2 9.7 0.00 0.00 0.00 66 1014.5
20260505030737 15 72 1.6 9.7 0.00 0.00 0.00 66 1014.6
20260505030238 15 151 1.6 8.0 0.00 0.00 0.00 66 1014.6
20260505030001 15 149 1.6 8.0 0.00 0.00 0.00 65 1014.6
20260505025236 15 334 3.2 9.7 0.00 0.00 0.00 64 1014.5
20260505024959 15 219 3.2 9.7 0.00 0.00 0.00 63 1014.7
20260505024236 15 82 1.6 9.7 0.00 0.00 0.00 63 1014.7
20260505023736 15 173 1.6 9.7 0.00 0.00 0.00 63 1014.6
20260505023236 15 63 1.6 8.0 0.00 0.00 0.00 63 1014.5
20260505023002 15 0 3.2 14.5 0.00 0.00 0.00 63 1014.6
20260505022500 15 204 1.6 14.5 0.00 0.00 0.00 63 1014.7
20260505021737 15 39 3.2 11.3 0.00 0.00 0.00 62 1014.5
20260505021236 16 141 1.6 11.3 0.00 0.00 0.00 62 1014.4
20260505020736 16 300 3.2 14.5 0.00 0.00 0.00 62 1014.8
20260505020235 16 244 3.2 14.5 0.00 0.00 0.00 61 1014.5
20260505015736 16 248 3.2 9.7 0.00 0.00 0.00 61 1014.5
20260505015235 16 223 4.8 9.7 0.00 0.00 0.00 60 1014.5
20260505014736 16 282 4.8 9.7 0.00 0.00 0.00 60 1014.5
20260505014236 16 281 0.0 11.3 0.00 0.00 0.00 59 1014.5
20260505013735 16 238 3.2 11.3 0.00 0.00 0.00 59 1014.5
20260505013234 16 275 3.2 9.7 0.00 0.00 0.00 58 1014.4
20260505012734 17 62 3.2 16.1 0.00 0.00 0.00 57 1014.4
20260505012457 17 55 3.2 16.1 0.00 0.00 0.00 57 1014.5
20260505011734 17 30 4.8 11.3 0.00 0.00 0.00 57 1014.6
20260505011235 17 54 3.2 8.0 0.00 0.00 0.00 55 1014.6
20260505010734 17 240 1.6 11.3 0.00 0.00 0.00 55 1014.6
20260505010235 17 354 3.2 11.3 0.00 0.00 0.00 56 1014.6
20260505005734 17 330 3.2 9.7 0.00 0.00 0.00 56 1014.7
20260505005234 17 247 3.2 9.7 0.00 0.00 0.00 57 1014.7
20260505004733 16 245 3.2 11.3 0.00 0.00 0.00 57 1014.8
20260505004233 17 237 3.2 11.3 0.00 0.00 0.00 57 1014.9
20260505003733 17 330 3.2 8.0 0.00 0.00 0.00 58 1014.9
20260505003234 17 148 3.2 9.7 0.00 0.00 0.00 58 1014.8
20260505002733 17 254 3.2 9.7 0.00 0.00 0.00 58 1014.9
20260505002234 17 272 4.8 11.3 0.00 0.00 0.00 58 1014.8
20260505001733 17 235 3.2 17.7 0.00 0.00 0.00 59 1014.8
20260505001233 17 298 8.0 17.7 0.00 0.00 0.00 58 1014.7
20260505000733 16 313 3.2 6.4 0.00 0.00 0.00 59 1014.7